AMAZONAS 5 (42934 NORAD) Tracking and Keplerian Element Data

This shows tracking and keplerian element data for the satellite.

Feedback or suggestion? Click here.




ElementValue
Catalog42934
NameAMAZONAS 5
Epoch Orbit592
Epoch Day112.49549029
Epoch Year2019
RAAN308.2252
Inclination0.0337
Eccentricity0.0004659
Argument of Perigee72.714
Mean Anonmoly306.6909
Mean Motion1.00270981
Decay Rate-2.99E-06
L11 42934U 17053A 19112.49549029 -.00000299 00000-0 00000+0 0 9994
L22 42934 0.0337 308.2252 0004659 72.7140 306.6909 1.00270981 5921

Live tracking and technical data element details for AMAZONAS 5 (NORAD 42934). AMAZONAS 5 can be tracked NOW for your location showing map with azimuth and elevation plus other details from your city location.

Track the satellite on the map from your city or location and see movement details for azimuth, elevation, latitude, longitude, range, height, and movement on the map or in text.







IsCatalogInMostPopularTable: catalog: 42934, numindb: 240
Update: records affected: 1



GetName: 42934 AMAZONAS 5

Hit Count: updated at: Tue, 23 Apr 2019 20:01:42 GMT